Regional Weather Roundup
Issued by NWS Jackson, KY

Home | Current Version | Previous Version | Graphics & Text | Print | Product List | Glossary On
Versions: 1 2 3 4 5 6 7 8 9 10 11 12 13 14 15 16 17 18 19 20 21 22 23 24 25 26 27 28 29 30 31 32 33 34 35 36 37 38 39 40 41 42 43 44 45 46 47 48 49 50
000
ASUS43 KJKL 282310
RWRJKL

EAST KENTUCKY HOURLY WEATHER ROUNDUP
NATIONAL WEATHER SERVICE JACKSON KY
700 PM EDT SUN AUG 28 2016

NOTE: "FAIR" INDICATES FEW OR NO CLOUDS BELOW 12,000 FEET WITH
NO SIGNIFICANT WEATHER AND/OR OBSTRUCTIONS TO VISIBILITY.

* THESE REPORTS ARE NOT UNDER NWS QUALITY CONTROL AND MAY NOT
  REPORT WEATHER SUCH AS PRECIPITATION AND FOG.

KYZ079-080-083-085-087-088-110-112-115-119-120-290000
...EASTERN KENTUCKY...

CITY           SKY/WX    TMP DP  RH WIND       PRES   REMARKS
JACKSON        CLOUDY    74  71  91 VRB5      30.19R
LONDON         CLOUDY    73  65  75 NE3       30.19R
SOMERSET*        N/A     70  70 100 CALM      30.20R
MONTICELLO*    TSTM     N/A N/A N/A N13G23    30.21R
WILLIAMSBURG*  CLOUDY    75  70  83 NE5       30.16S
MIDDLESBORO*   CLOUDY    75  68  79 CALM      30.16S
HARLAN APT*    PTCLDY    77  68  73 CALM      30.18R
PIKE CO APT*     N/A     81  75  83 N5        30.17R
BIG SANDY APT* CLOUDY    82  76  81 CALM      30.16S HX  90
MOREHEAD APT*  LGT RAIN  72  68  88 SW7       30.18F
$$

KYZ035-036-041-042-044-050-067-078-099-290000
...CENTRAL KENTUCKY...

CITY           SKY/WX    TMP DP  RH WIND       PRES   REMARKS
MT STERLING*   CLOUDY    73  70  88 S5        30.20S
FLEMING/MASON* LGT RAIN  76  74  93 N3        30.18R
DANVILLE*      CLOUDY    72  64  78 CALM      30.21F
LEXINGTON      CLOUDY    78  67  68 S14G21    30.18R
FRANKFORT      CLOUDY    74  71  91 SE13G18   30.18R
LOUISVILLE     LGT RAIN  80  70  71 S8        30.13R
GLASGOW*       MOSUNNY   77  73  86 CALM      30.12R
BOWLING GREEN  RAIN      83  67  58 SE9       30.09S
$$

KYZ091>093-OHZ055-061-077-WVZ005-015-034-035-042-290000
...SOUTHERN OHIO/WEST VIRGINIA...

CITY           SKY/WX    TMP DP  RH WIND       PRES   REMARKS
COVINGTON      TSTM      73  68  83 SE16G41   30.15R
COLUMBUS       TSTM      73  67  81 SW14      30.16R
DAYTON         PTSUNNY   87  71  58 N6        30.18R HX  93
WILMINGTON     CLOUDY    85  74  69 CALM      30.16R HX  92
HUNTINGTON     PTSUNNY   80  68  66 CALM      30.12S
CHARLESTON     CLOUDY    84  70  62 CALM      30.14S
PINEVILLE*     SUNNY     80  71  74 MISG      30.23R
BECKLEY        SUNNY     80  68  66 NE3       30.22F
BLUEFIELD      SUNNY     79  66  64 SE5       30.26R
LOGAN CO APT*    N/A     68  68 100 CALM      30.17F FOG
$$

VAZ002-007-008-TNZ017-027-036-066-071-290000
...SOUTHWEST VIRGINIA/EAST TENNESSEE...

CITY           SKY/WX    TMP DP  RH WIND       PRES   REMARKS
WISE*          MOSUNNY   79  63  57 N5        30.25R
JONESVILLE*    LGT RAIN  77  73  88 CALM      30.18R
ABINGDON*      SUNNY     86  64  48 E12       30.18S
BRISTOL        PTSUNNY   85  71  63 CALM      30.14R HX  90
SEVIERVILLE*   CLEAR     82  72  69 VRB3      30.11R
KNOXVILLE      CLOUDY    81  66  60 N10       30.10R THUNDER
OAK RIDGE      CLOUDY    75  70  84 CALM      30.13F
CROSSVILLE     PTSUNNY   80  72  76 W6        30.17S THUNDER
NASHVILLE      PTSUNNY   85  69  58 S7        30.10R
$$

...KEY TO REMARKS...
VSB - VISIBILITY IN MILES
WCI - WIND CHILL INDEX
HX  - HEAT INDEX

$$



USA.gov is the U.S. government's official web portal to all federal, state and local government web resources and services.